Regional Weather Roundup
Issued by NWS

Home | Current Version | Previous Version | Graphics & Text | Print | Product List | Glossary On
Versions: 1 2 3 4 5 6 7 8 9 10 11 12 13 14 15 16 17 18 19 20 21 22 23 24 25 26 27 28
000
ASUS45 KCYS 232310
RWRWY

WYOMING REGIONAL WEATHER ROUNDUP
NATIONAL WEATHER SERVICE CHEYENNE WY
400 PM MST THU FEB 23 2017

NOTE:  "FAIR" INDICATES FEW OR NO CLOUDS BELOW 12,000 FEET
WITH NO SIGNIFICANT WEATHER AND/OR OBSTRUCTIONS TO VISIBILITY.

WYZ001-240000-
YELLOWSTONE NATIONAL PARK

CITY           SKY/WX    TMP DP  RH WIND       PRES   REMARKS
LK YELLOWSTONE   N/A     18   5  57 VRB3      29.71R
W YELLOWSTONE  NOT AVBL

$$
WYZ002>013-054>058-071-098>099-240000-
NORTHERN WYOMING

CITY           SKY/WX    TMP DP  RH WIND       PRES   REMARKS
JACKSON        CLOUDY    28  23  80 N17       29.65R WCI  16
CODY           CLOUDY    22  17  81 N17G24    29.84R WCI   8
GREYBULL       CLOUDY    30  20  66 NW21      29.78R WCI  17
WORLAND        CLOUDY    28  24  85 NW15      29.80R WCI  16
SHERIDAN       CLOUDY    29  21  72 E12       29.89R WCI  19
BUFFALO        SNOW      26  21  81 N13G21    29.84R VSB 1/2 WCI  15
GILLETTE       LGT SNOW  25  22  88 NE17      29.85R FOG     WCI  12
HULETT         CLOUDY    27  21  80 MISG      29.87R
NEWCASTLE      LGT SNOW  28  27  93 W3        29.82R

$$
WYZ014>020-022>026-101>103-240000-
CENTRAL WYOMING

CITY           SKY/WX    TMP DP  RH WIND       PRES   REMARKS
BIG PINEY      CLOUDY    23  18  81 S10       29.65R WCI  12
PINEDALE       CLOUDY    27   9  46 NE8       29.65R WCI  18
DUBOIS         LGT SNOW  19  14  79 SE13      29.67R WCI   7
LANDER         SNOW      23  20  88 N13       29.74R VSB 1/2 WCI  11
RIVERTON       SNOW      22  20  92 N16       29.74R VSB 1/2 WCI   8
CASPER         LGT SNOW  20  17  88 E14       29.76R VSB 1   WCI   7
DOUGLAS        SNOW      19  16  88 SE10      29.81R VSB 1/2 WCI   7

$$
WYZ021-027>030-104>119-240000-
SOUTHERN WYOMING

CITY           SKY/WX    TMP DP  RH WIND       PRES   REMARKS
EVANSTON       CLOUDY    20  13  74 SW20      29.69R WCI   4
FORT BRIDGER   CLOUDY    24  22  92 W22G28    29.70R FOG     WCI   8
ROCK SPRINGS   LGT SNOW  22  16  78 N22       29.64R WCI   6
DIXON            N/A     26  19  76 SW17      29.64R WCI  12
RAWLINS        SNOW      19  15  84 E21       29.62R VSB 1/2 WCI   3
SARATOGA       MOCLDY    25  16  68 N8        29.60R WCI  16
LARAMIE        CLOUDY    16   8  71 NE15      29.61R WCI   1
CHEYENNE       LGT SNOW  17  12  80 N14G23    29.67R VSB 3/4 WCI   3
TORRINGTON     SNOW      22  18  85 N10       29.79R VSB 1/2 WCI  11
PINE BLUFFS    CLOUDY    19  18  93 NE21G33   29.70R WCI   3

$$




USA.gov is the U.S. government's official web portal to all federal, state and local government web resources and services.